sat.trackr.live / text

‹ back to catalog

STARLINK-4012

NORAD 52602 · 2022-052E

PAYLOAD ACTIVE UNKNOWN

§ Identity

Operator
Country
US
Launch date
2022-05-14
Launch site
AFETR
Launch vehicle
Mass (kg)
RCS (m²)

Purposes: comms

External: N2YO · Heavens-Above · Gunter

§ Orbital elements

Epoch: 2026-05-24T16:57:45.052416Z

Period
95.44 min
Inclination
53.2142°
Eccentricity
0.0001914
Mean motion
15.08807651 rev/d
Perigee alt
538.5 km
Apogee alt
541.2 km
Semi-major
6,918.0 km
B*
4.0654e-4
RAAN
297.8637°
Arg perigee
99.3322°
Mean anomaly
260.7887°
Rev number
22,313

§ Raw data

STARLINK-40121 52602U 22052E   26144.70677144  .00006182  00000+0  40654-3 0  99972 52602  53.2142 297.8637 0001914  99.3322 260.7887 15.08807651223139

JSON: /api/v1/satellites/52602 · /tle

For live sub-satellite position, see the globe view (requires WebGL).

§ Visibility from observer

Set your observer location to see the next 7 days of passes ≥ 10°. The values pass through the URL so the page stays shareable.

No JS? Fill the form by hand. The geolocation button needs JavaScript.